DW3871 Weather Reports


time (UTC)temp
C
wind
direction
speed
KPH
gust
KPH
rain 1hr
cm
rain 24hr
cm
rain mn
cm
humidity
%
barometer
mb
20260507090719 11 334 14.5 19.3 0.00 0.00 0.00 23 1016.3
20260507090220 11 334 17.7 19.3 0.00 0.00 0.00 23 1016.2
20260507085719 11 329 14.5 19.3 0.00 0.00 0.00 21 1016.3
20260507085219 11 327 14.5 19.3 0.00 0.00 0.00 20 1016.2
20260507084720 11 340 16.1 19.3 0.00 0.00 0.00 23 1016.2
20260507084219 11 348 16.1 19.3 0.00 0.00 0.00 24 1016.3
20260507083718 11 333 16.1 19.3 0.00 0.00 0.00 25 1016.0
20260507082219 11 341 14.5 17.7 0.00 0.00 0.00 25 1016.1
20260507081709 11 322 11.3 16.1 0.00 0.00 0.00 27 1016.1
20260507081206 11 329 12.9 16.1 0.00 0.00 0.00 31 1016.0
20260507080706 11 344 12.9 20.9 0.00 0.00 0.00 33 1015.9
20260507075150 11 354 11.3 14.5 0.00 0.00 0.00 29 1016.0
20260507074648 11 346 4.8 9.7 0.00 0.00 0.00 27 1015.9
20260507073634 11 357 6.4 11.3 0.00 0.00 0.00 23 1015.9
20260507073134 11 58 3.2 11.3 0.00 0.00 0.00 26 1015.9
20260507072629 10 10 6.4 14.5 0.00 0.00 0.00 28 1015.9
20260507071629 10 21 8.0 16.1 0.00 0.00 0.00 29 1016.0
20260507071129 10 31 12.9 16.1 0.00 0.00 0.00 27 1015.8
20260507070628 10 24 4.8 11.3 0.00 0.00 0.00 26 1015.8
20260507070129 10 41 9.7 11.3 0.00 0.00 0.00 24 1015.8
20260507065620 10 10 8.0 16.1 0.00 0.00 0.00 17 1015.9
20260507065119 10 44 9.7 16.1 0.00 0.00 0.00 17 1015.8
20260507064619 10 27 9.7 14.5 0.00 0.00 0.00 13 1015.8
20260507063603 10 10 8.0 11.3 0.00 0.00 0.00 7 1015.8
20260507063102 10 358 8.0 11.3 0.00 0.00 0.00 7 1015.7
20260507062602 10 4 8.0 9.7 0.00 0.00 0.00 6 1015.7
20260507062101 9 7 4.8 9.7 0.00 0.00 0.00 5 1015.7
20260507061557 9 10 6.4 9.7 0.00 0.00 0.00 4 1015.7
20260507061057 9 10 6.4 11.3 0.00 0.00 0.00 3 1015.6
20260507055529 8 10 6.4 8.0 0.00 0.00 0.00 1 1015.5
20260507055019 8 14 6.4 8.0 0.00 0.00 0.00 1 1015.5
20260507054519 8 21 3.2 6.4 0.00 0.00 0.00 1 1015.4
20260507054019 8 10 4.8 6.4 0.00 0.00 0.00 1 1015.5
20260507053513 8 21 4.8 8.0 0.00 0.00 0.00 1 1015.5
20260507053012 8 30 4.8 8.0 0.00 0.00 0.00 1 1015.4
20260507052503 8 28 6.4 8.0 0.00 0.00 0.00 1 1015.4
20260507052003 8 47 4.8 9.7 0.00 0.00 0.00 1 1015.4
20260507051452 8 45 8.0 9.7 0.00 0.00 0.00 1 1015.2
20260507050953 8 28 4.8 6.4 0.00 0.00 0.00 1 1015.3
20260507050444 8 18 6.4 8.0 0.00 0.00 0.00 1 1015.2
20260507044932 8 31 4.8 9.7 0.00 0.00 0.00 1 1015.1
20260507044430 8 17 6.4 9.7 0.00 0.00 0.00 1 1014.9
20260507043930 8 24 8.0 8.0 0.00 0.00 0.00 1 1015.0
20260507043430 8 27 6.4 8.0 0.00 0.00 0.00 1 1014.9
20260507042919 8 42 6.4 8.0 0.00 0.00 0.00 1 1014.8
20260507042418 8 30 4.8 8.0 0.00 0.00 0.00 1 1014.8
20260507041901 8 34 6.4 8.0 0.00 0.00 0.00 1 1014.8
20260507041335 8 17 6.4 11.3 0.00 0.00 0.00 1 1014.7
20260507040832 8 14 8.0 11.3 0.00 0.00 0.00 1 1014.7
20260507040330 8 35 6.4 11.3 0.00 0.00 0.00 1 1014.7
20260507035829 8 35 8.0 11.3 0.00 0.00 0.00 1 1014.7
20260507035336 8 38 6.4 9.7 0.00 0.00 0.00 1 1014.7
20260507034835 8 31 8.0 9.7 0.00 0.00 0.00 1 1014.7
20260507034329 8 20 6.4 9.7 0.00 0.00 0.00 1 1014.6
20260507033820 8 44 9.7 9.7 0.00 0.00 0.00 1 1014.6
20260507033319 8 20 6.4 11.3 0.00 0.00 0.00 1 1014.5
20260507032819 8 23 8.0 11.3 0.00 0.00 0.00 1 1014.5
20260507032318 8 18 9.7 11.3 0.00 0.00 0.00 1 1014.5
20260507031819 8 34 9.7 11.3 0.00 0.00 0.00 1 1014.4
20260507031318 8 27 9.7 9.7 0.00 0.00 0.00 1 1014.5
20260507030818 8 26 8.0 9.7 0.00 0.00 0.00 1 1014.4
20260507030319 8 16 8.0 9.7 0.00 0.00 0.00 1 1014.3
20260507025804 8 13 8.0 9.7 0.00 0.00 0.00 1 1014.3
20260507025301 8 10 6.4 9.7 0.00 0.00 0.00 1 1014.3
20260507024802 8 27 8.0 9.7 0.00 0.00 0.00 1 1014.4
20260507024304 8 47 4.8 8.0 0.00 0.00 0.00 1 1014.3
20260507023229 8 42 9.7 11.3 0.00 0.00 0.00 1 1014.3
20260507022729 8 28 9.7 14.5 0.00 0.00 0.00 1 1014.3
20260507022227 8 31 9.7 14.5 0.00 0.00 0.00 1 1014.2
20260507021719 8 59 11.3 14.5 0.00 0.00 0.00 1 1014.2
20260507021218 8 34 9.7 14.5 0.00 0.00 0.00 1 1014.2
20260507020719 8 37 11.3 14.5 0.00 0.00 0.00 1 1014.2
20260507020219 7 41 11.3 14.5 0.00 0.00 0.00 1 1014.2
20260507014702 8 51 9.7 14.5 0.00 0.00 0.00 1 1014.1
20260507014201 7 13 8.0 16.1 0.00 0.00 0.00 1 1014.0
20260507013643 7 27 9.7 16.1 0.00 0.00 0.00 1 1013.9
20260507013140 7 26 8.0 14.5 0.00 0.00 0.00 1 1014.0
20260507012640 7 27 9.7 14.5 0.00 0.00 0.00 1 1014.0
20260507012130 7 27 9.7 14.5 0.00 0.00 0.00 1 1014.0
20260507011129 7 38 9.7 14.5 0.00 0.00 0.00 1 1014.1
20260507010630 7 18 8.0 14.5 0.00 0.00 0.00 1 1013.9
20260507010119 7 31 8.0 14.5 0.00 0.00 0.00 1 1014.0
20260507005619 7 33 8.0 16.1 0.00 0.00 0.00 1 1013.9
20260507005105 7 31 9.7 16.1 0.00 0.00 0.00 1 1013.9
20260507004101 7 49 9.7 11.3 0.00 0.00 0.00 1 1013.9
20260507003558 7 21 8.0 16.1 0.00 0.00 0.00 1 1013.9
20260507003055 7 14 9.7 16.1 0.00 0.00 0.00 1 1014.0
20260507002530 7 14 8.0 11.3 0.00 0.00 0.00 1 1014.0
20260507002034 7 30 11.3 11.3 0.00 0.00 0.00 1 1014.0
20260507001530 8 42 6.4 9.7 0.00 0.00 0.00 1 1013.9
20260507001035 8 42 8.0 14.5 0.00 0.00 0.00 1 1013.8
20260507000024 8 33 9.7 14.5 0.00 0.00 0.00 1 1013.8
20260506235518 8 34 11.3 14.5 0.00 0.00 0.00 1 1013.8
20260506234518 8 23 9.7 16.1 0.00 0.00 0.00 1 1013.9
20260506234033 8 35 8.0 16.1 0.00 0.00 0.00 1 1013.9
20260506233519 8 21 9.7 11.3 0.00 0.00 0.00 1 1013.8
20260506233026 8 13 6.4 11.3 0.00 0.00 0.00 1 1013.9
20260506232518 8 17 6.4 11.3 0.00 0.00 0.00 1 1013.9
20260506232027 8 34 6.4 11.3 0.00 0.00 0.00 1 1013.8
20260506231519 8 38 8.0 11.3 0.00 0.00 0.00 1 1013.8
20260506231025 8 20 6.4 11.3 0.00 0.00 0.00 2 1013.8
20260506230518 8 28 8.0 11.3 0.00 0.00 0.00 3 1013.9
20260506230022 8 30 8.0 11.3 0.00 0.00 0.00 3 1013.8
20260506225518 8 31 8.0 9.7 0.00 0.00 0.00 5 1013.8
20260506225024 9 21 6.4 11.3 0.00 0.00 0.00 5 1013.8
20260506224519 9 24 9.7 11.3 0.00 0.00 0.00 6 1013.7
20260506224039 9 58 6.4 9.7 0.00 0.00 0.00 7 1013.7
20260506223518 9 14 6.4 9.7 0.00 0.00 0.00 9 1013.7
20260506222025 9 30 8.0 11.3 0.00 0.00 0.00 10 1013.5
20260506221518 9 20 6.4 14.5 0.00 0.00 0.00 11 1013.5
20260506221030 10 28 9.7 14.5 0.00 0.00 0.00 12 1013.5
20260506220518 10 27 9.7 14.5 0.00 0.00 0.00 13 1013.5
20260506215518 10 27 8.0 14.5 0.00 0.00 0.00 16 1013.4
20260506214518 10 10 11.3 16.1 0.00 0.00 0.00 18 1013.3
20260506214028 10 14 8.0 11.3 0.00 0.00 0.00 20 1013.3
20260506213518 10 24 9.7 16.1 0.00 0.00 0.00 22 1013.2
20260506213027 10 10 6.4 16.1 0.00 0.00 0.00 25 1013.2
20260506212519 10 26 8.0 14.5 0.00 0.00 0.00 25 1013.2
20260506212029 10 10 9.7 16.1 0.00 0.00 0.00 27 1013.2
20260506211518 10 26 9.7 16.1 0.00 0.00 0.00 29 1013.2
20260506211026 10 23 9.7 16.1 0.00 0.00 0.00 34 1013.0
20260506210518 10 16 11.3 16.1 0.00 0.00 0.00 35 1013.0
20260506210026 10 17 11.3 16.1 0.00 0.00 0.00 39 1013.0
20260506205518 10 13 11.3 16.1 0.00 0.00 0.00 42 1013.0
20260506205028 10 23 8.0 16.1 0.00 0.00 0.00 44 1012.9
20260506204518 10 13 9.7 17.7 0.00 0.00 0.00 45 1013.0
20260506204028 10 38 12.9 17.7 0.00 0.00 0.00 49 1013.0
20260506203518 10 10 11.3 19.3 0.00 0.00 0.00 49 1012.9
20260506203028 10 17 9.7 19.3 0.00 0.00 0.00 51 1012.8
20260506202519 11 52 11.3 19.3 0.00 0.00 0.00 52 1012.8
20260506202029 11 13 9.7 17.7 0.00 0.00 0.00 53 1012.8
20260506201519 11 13 14.5 17.7 0.00 0.00 0.00 55 1012.7
20260506201028 11 10 9.7 17.7 0.00 0.00 0.00 55 1012.7
20260506200518 11 16 9.7 16.1 0.00 0.00 0.00 56 1012.7
20260506200027 11 10 11.3 16.1 0.00 0.00 0.00 57 1012.6
20260506195502 11 16 12.9 19.3 0.00 0.00 0.00 57 1012.4
20260506195002 11 13 12.9 19.3 0.00 0.00 0.00 58 1012.3
20260506193430 11 18 12.9 25.7 0.00 0.00 0.00 58 1012.2
20260506192930 11 35 19.3 20.9 0.00 0.00 0.00 59 1012.1
20260506192432 11 10 11.3 20.9 0.00 0.00 0.00 59 1012.1
20260506191929 11 10 14.5 20.9 0.00 0.00 0.00 59 1012.0
20260506190930 12 28 9.7 19.3 0.00 0.00 0.00 57 1011.9
20260506190426 12 10 9.7 20.9 0.00 0.00 0.00 57 1011.8
20260506185918 12 10 14.5 20.9 0.00 0.00 0.00 57 1011.7
20260506185418 12 54 11.3 20.9 0.00 0.00 0.00 56 1011.6
20260506184902 12 28 12.9 25.7 0.00 0.00 0.00 56 1011.5
20260506184402 12 31 19.3 25.7 0.00 0.00 0.00 56 1011.4
20260506183901 12 13 14.5 29.0 0.00 0.00 0.00 56 1011.4
20260506183402 12 28 16.1 29.0 0.00 0.00 0.00 55 1011.3
20260506182831 12 20 17.7 22.5 0.00 0.00 0.00 55 1011.3
20260506182331 13 16 14.5 25.7 0.00 0.00 0.00 55 1011.3
20260506181831 13 17 12.9 25.7 0.00 0.00 0.00 55 1011.3
20260506181330 13 24 20.9 24.1 0.00 0.00 0.00 55 1011.0
20260506180819 13 14 17.7 24.1 0.00 0.00 0.00 56 1011.0
20260506175818 13 21 14.5 29.0 0.00 0.00 0.00 56 1011.0
20260506174807 13 37 17.7 29.0 0.00 0.00 0.00 56 1010.7
20260506173802 13 10 16.1 25.7 0.00 0.00 0.00 56 1010.6
20260506173301 13 48 17.7 25.7 0.00 0.00 0.00 56 1010.6
20260506172232 13 10 14.5 30.6 0.00 0.00 0.00 56 1010.6
20260506171730 13 24 17.7 27.4 0.00 0.00 0.00 56 1010.4
20260506171230 13 31 16.1 27.4 0.00 0.00 0.00 56 1010.5
20260506170229 13 16 20.9 27.4 0.00 0.00 0.00 56 1010.4
20260506165730 13 16 9.7 25.7 0.00 0.00 0.00 56 1010.5
20260506163721 13 59 17.7 25.7 0.00 0.00 0.00 56 1010.4
20260506163219 13 41 14.5 25.7 0.00 0.00 0.00 56 1010.3
20260506162719 13 26 17.7 24.1 0.00 0.00 0.00 56 1010.2
20260506162218 13 28 14.5 24.1 0.00 0.00 0.00 56 1010.2
20260506161723 13 10 14.5 24.1 0.00 0.00 0.00 57 1010.2
20260506161223 13 10 16.1 24.1 0.00 0.00 0.00 56 1010.2
20260506160721 13 21 9.7 24.1 0.00 0.00 0.00 57 1010.2
20260506155718 13 28 16.1 27.4 0.00 0.00 0.00 56 1010.2
20260506155217 13 44 16.1 24.1 0.00 0.00 0.00 56 1010.1
20260506154707 13 66 16.1 22.5 0.00 0.00 0.00 56 1010.2
20260506154203 13 38 9.7 25.7 0.00 0.00 0.00 56 1010.3
20260506153701 13 10 12.9 25.7 0.00 0.00 0.00 56 1010.3
20260506153203 13 10 12.9 22.5 0.00 0.00 0.00 56 1010.2
20260506152702 13 10 14.5 22.5 0.00 0.00 0.00 56 1010.3
20260506152203 13 21 8.0 19.3 0.00 0.00 0.00 56 1010.2
20260506151701 13 40 9.7 27.4 0.00 0.00 0.00 56 1010.2
20260506151138 13 17 17.7 27.4 0.00 0.00 0.00 56 1010.0
20260506150130 13 10 17.7 25.7 0.00 0.00 0.00 56 1010.2
20260506145121 13 24 19.3 24.1 0.00 0.00 0.00 56 1010.1
20260506144620 13 30 12.9 24.1 0.00 0.00 0.00 56 1010.1
20260506144118 13 18 14.5 24.1 0.00 0.00 0.00 56 1010.2
20260506143617 13 10 12.9 24.1 0.00 0.00 0.00 56 1010.2
20260506143118 13 10 14.5 22.5 0.00 0.00 0.00 56 1010.2
20260506142617 13 17 16.1 22.5 0.00 0.00 0.00 56 1010.1
20260506142117 13 21 14.5 20.9 0.00 0.00 0.00 56 1010.1
20260506141617 13 16 14.5 20.9 0.00 0.00 0.00 56 1010.1
20260506141117 13 27 11.3 20.9 0.00 0.00 0.00 56 1010.1
20260506140117 13 17 14.5 22.5 0.00 0.00 0.00 56 1010.1
20260506135617 13 10 14.5 22.5 0.00 0.00 0.00 56 1010.1
20260506134617 13 10 19.3 27.4 0.00 0.00 0.00 56 1010.0
20260506133117 13 11 19.3 27.4 0.00 0.00 0.00 56 1010.0
20260506132617 13 10 19.3 24.1 0.00 0.00 0.00 56 1009.9
20260506132117 13 34 11.3 27.4 0.00 0.00 0.00 56 1010.1
20260506131617 13 13 22.5 27.4 0.00 0.00 0.00 55 1009.9
20260506131117 13 17 11.3 27.4 0.00 0.00 0.00 55 1009.9
20260506130617 13 28 11.3 24.1 0.00 0.00 0.00 55 1009.8
20260506130117 13 26 17.7 24.1 0.00 0.00 0.00 54 1009.8
20260506125617 13 35 8.0 24.1 0.00 0.00 0.00 54 1009.8
20260506125116 13 8 12.9 27.4 0.00 0.00 0.00 54 1009.7
20260506124618 13 14 20.9 27.4 0.00 0.00 0.00 54 1009.6
20260506124117 13 13 17.7 27.4 0.00 0.00 0.00 54 1009.7
20260506123618 13 51 14.5 30.6 0.00 0.00 0.00 55 1009.7
20260506123117 13 5 16.1 30.6 0.00 0.00 0.00 54 1009.7
20260506122617 14 14 16.1 37.0 0.00 0.00 0.00 53 1009.6
20260506122117 14 11 19.3 37.0 0.00 0.00 0.00 53 1009.6
20260506121617 14 37 16.1 30.6 0.00 0.00 0.00 54 1009.7
20260506121117 13 20 22.5 30.6 0.00 0.00 0.00 55 1009.6
20260506120623 13 116 14.5 24.1 0.00 0.00 0.00 55 1009.6
20260506115617 13 35 20.9 25.7 0.00 0.00 0.00 54 1009.6
20260506115117 14 106 17.7 27.4 0.00 0.00 0.00 54 1009.6
20260506114619 13 10 20.9 27.4 0.00 0.00 0.00 54 1009.5
20260506113618 13 21 14.5 27.4 0.00 0.00 0.00 54 1009.7
20260506113118 13 10 19.3 25.7 0.00 0.00 0.00 54 1009.5
20260506112618 13 14 16.1 30.6 0.00 0.00 0.00 52 1009.7
20260506112117 13 47 12.9 30.6 0.00 0.00 0.00 52 1009.6
20260506111617 14 10 16.1 29.0 0.00 0.00 0.00 53 1009.7
20260506111117 13 10 20.9 29.0 0.00 0.00 0.00 54 1009.5
20260506110617 13 10 20.9 27.4 0.00 0.00 0.00 52 1009.7
20260506110117 13 21 17.7 27.4 0.00 0.00 0.00 52 1009.5
20260506105617 13 10 17.7 27.4 0.00 0.00 0.00 52 1009.7
20260506105117 13 35 17.7 27.4 0.00 0.00 0.00 52 1009.6
20260506104617 13 11 19.3 27.4 0.00 0.00 0.00 55 1009.7
20260506104117 13 37 19.3 29.0 0.00 0.00 0.00 54 1009.6
20260506103617 13 10 16.1 29.0 0.00 0.00 0.00 54 1009.6
20260506103117 13 10 20.9 25.7 0.00 0.00 0.00 51 1009.5
20260506102617 13 42 14.5 29.0 0.00 0.00 0.00 51 1009.7
20260506102117 13 28 16.1 29.0 0.00 0.00 0.00 50 1009.6
20260506101617 13 11 17.7 25.7 0.00 0.00 0.00 45 1009.4
20260506101117 12 28 16.1 25.7 0.00 0.00 0.00 41 1009.7
20260506095617 12 33 16.1 24.1 0.00 0.00 0.00 42 1009.6
20260506095116 12 10 19.3 29.0 0.00 0.00 0.00 41 1009.6
20260506094617 12 13 19.3 30.6 0.00 0.00 0.00 42 1009.3
20260506094117 13 10 20.9 30.6 0.00 0.00 0.00 39 1009.5
20260506093616 12 13 17.7 25.7 0.00 0.00 0.00 31 1009.5
20260506092616 12 10 14.5 29.0 0.00 0.00 0.00 26 1009.5
20260506092116 12 49 14.5 29.0 0.00 0.00 0.00 27 1009.5
20260506091608 12 14 19.3 27.4 0.00 0.00 0.00 25 1009.3
20260506091101 12 10 22.5 29.0 0.00 0.00 0.00 24 1009.2